Location: Caltech
(34.1382°N, 118.1253°W)
Time: 20:33:58
(UTC-08:00)

KITSAT 1 - Visible Passes

Search period start: 11 December 2017 00:00
Search period end: 21 December 2017 00:00
Orbit: 1303 x 1327 km, 66.1° (Epoch: 11 December)

Date Brightness Start Highest point End Pass type
(mag) Time Alt. Az. Time Alt. Az. Time Alt. Az.
11 Dec 11.5 17:36:21 10° WSW 17:43:39 36° NW 17:51:02 10° NNE visible
12 Dec 11.9 17:53:42 10° W 18:00:07 25° NW 18:06:37 10° N visible
13 Dec 12.3 18:11:42 10° W 18:16:47 18° NW 18:21:56 10° N visible
14 Dec 12.4 18:30:45 10° WNW 18:33:39 12° NW 18:36:34 10° NNW visible
16 Dec 11.9 17:02:30 10° WSW 17:09:01 26° NW 17:15:35 10° N visible
17 Dec 12.2 17:20:27 10° W 17:25:40 18° NW 17:30:56 10° N visible
18 Dec 12.3 17:39:22 10° WNW 17:42:31 12° NW 17:45:40 10° NNW visible
